Regional Weather Roundup
Issued by NWS Northern Indiana

Home | Current Version | Previous Version | Graphics & Text | Print | Product List | Glossary On
Versions: 1 2 3 4 5 6 7 8 9 10 11 12 13 14 15 16 17 18 19 20 21 22 23 24 25 26 27 28 29 30 31 32 33 34 35 36 37 38 39 40 41 42 43 44 45 46 47 48 49 50
967
ASUS43 KIWX 301110
RWRIWX

KIWX WEATHER ROUNDUP
NATIONAL WEATHER SERVICE NORTHERN INDIANA
700 AM EDT SAT JUL 30 2016

NOTE: "FAIR" INDICATES FEW OR NO CLOUDS BELOW 12,000 FEET WITH NO
SIGNIFICANT WEATHER AND/OR OBSTRUCTIONS TO VISIBILITY.

* THESE STATIONS ARE NOT UNDER NWS QUALITY CONTROL. THEY ALSO MAY NOT
  REPORT WEATHER SUCH AS PRECIPITATION OR FOG.

INZ001>027-301200-
NORTHERN INDIANA

CITY           SKY/WX    TMP DP  RH WIND       PRES   REMARKS
GARY*          MOCLDY    66  66 100 CALM      29.94R FOG
VALPARAISO     CLOUDY    68  67  96 E3        29.95R
MICHIGAN CITY* CLOUDY    68  68 100 CALM      29.95R FOG
LAPORTE*       CLOUDY   N/A N/A N/A CALM      29.95R FOG
KNOX*          CLOUDY    68  64  88 E5        29.94R
SOUTH BEND     CLOUDY    68  66  93 E8        29.95R
GOSHEN         CLOUDY    68  64  87 NE8       29.95R FOG
MONTICELLO*    CLOUDY    67  64  87 CALM      29.93R FOG
LOGANSPORT*    CLOUDY    68  68 100 CALM      29.94R FOG
ROCHESTER*     CLOUDY    72  72 100 E5        29.94R FOG
WARSAW*        CLOUDY    68  66  94 E8        29.94R
ANGOLA*        CLOUDY    64  55  72 CALM      29.95R
FORT WAYNE     CLOUDY    70  68  93 E7        29.93S FOG
HUNTINGTON*    CLOUDY    69  67  95 CALM      29.93R FOG
PERU/GRISSOM   FOG       68  68 100 E1        29.92R VSB 1/4
MARION*        FOG       67  67 100 SE3       29.94S VSB<1/4

$$
INZ028>050-301200-
CENTRAL INDIANA

CITY           SKY/WX    TMP DP  RH WIND       PRES   REMARKS
LAFAYETTE      FOG       67  67 100 SE3       29.93R VSB 1/4
KOKOMO*        CLOUDY    66  63  88 SE3       29.93R VSB 1/2
MUNCIE*        FOG       68  66  93 CALM      29.94R VSB<1/4
INDIANAPOLIS   PTCLDY    68  67  96 W5        29.94R

$$
MIZ043>046-050>051-056>058-064>065-071>073-077>080-301200-
SOUTHWEST LOWER MICHIGAN

CITY           SKY/WX    TMP DP  RH WIND       PRES   REMARKS
BATTLE CREEK   CLOUDY    62  60  93 NE9       29.97S
BENTON HARBOR  CLOUDY    66  59  78 NE6       29.96R
COLDWATER*     CLOUDY    64  62  93 NE9       29.96S
HILLSDALE*     CLOUDY    64  60  89 CALM      29.96S
HOLLAND        LGT RAIN  63  60  90 E5        29.99S
GRAND RAPIDS   MOCLDY    62  60  93 E8        29.99S
KALAMAZOO      TSTM      64  59  83 NE5       29.98R VSB 1
STURGIS*       CLOUDY    63  60  89 NE5       29.96R
THREE RIVERS*  CLOUDY    66  58  75 CALM      29.96S

$$
OHZ001>008-015>018-024>025-301200-
NORTHWEST OHIO

CITY           SKY/WX    TMP DP  RH WIND       PRES   REMARKS
DEFIANCE       CLOUDY    66  61  84 NE5       29.94S
FINDLAY        CLOUDY    72  68  87 CALM      29.92R FOG
TOLEDO EXPRESS MOCLDY    65  63  93 N5        29.93R
TOLEDO METCALF PTCLDY    70  68  93 NW6       29.93R
LIMA           CLEAR     66  66 100 CALM      29.93S FOG

$$
AND FOR LAKE MICHIGAN COASTAL AND OPEN LAKE BUOY OBSERVATIONS

STATION/POSITION TEMP    WIND        PRES    VSBY  WAVE
                 AIR SEA DIR/SP/G                  HT/PER
                 (F)     (DEG/KT/KT) (MB)    (MI)  (FT/S)
CALUMET HARBOR    72      20/  3/  4 1012.8R
MICHIGAN CITY     68      80/  4/  5   N/A
BURNS HARBOR      69     160/  2/ 10 1013.9R
SAINT JOSEPH      66      30/  3/  6 1014.9S
SOUTH LAKE BUOY   68 73   90/ 17/ 19 1013.8R         4/ 5
4 MI NW BRIDGMAN  67 70   30/  8/ 12 1014.4R         2
MICHIGAN CITY     69 75  110/  4/  6   N/A           2/ 5

$$
&&




USA.gov is the U.S. government's official web portal to all federal, state and local government web resources and services.